DAL1060 KATL-KAUS

Flight info

Callsign DAL1060
Flight time N/A
Altitude 32000
Route POUNC2 GRGIA GARTS LCH WEEED WLEEE7
Aircraft B739/M-SDE2E3FGHIRWXY/LB1

Departure

Time 2026-05-07 01:41
Airport Hartsfield Jackson Atlanta International Airport (KATL)

Arrival

Time N/A
Airport Austin Bergstrom International Airport (KAUS)
Time Latitude Longitude Altitude Speed Heading
2026-05-07 01:19 33.63840 -84.44193 1007 ft 0 kts 270°
2026-05-07 01:28 33.63840 -84.44173 1006 ft 4 kts 270°
2026-05-07 01:28 33.63841 -84.44144 1006 ft 4 kts 277°
2026-05-07 01:29 33.63831 -84.44120 1006 ft 4 kts 338°
2026-05-07 01:29 33.63808 -84.44115 1006 ft 1 kts
2026-05-07 01:29 33.63804 -84.44115 1006 ft 0 kts
2026-05-07 01:31 33.63828 -84.44115 1006 ft 6 kts
2026-05-07 01:31 33.63889 -84.44115 1006 ft 11 kts
2026-05-07 01:32 33.63982 -84.44115 1006 ft 16 kts 359°
2026-05-07 01:32 33.64108 -84.44115 1006 ft 20 kts
2026-05-07 01:32 33.64241 -84.44115 1006 ft 18 kts 359°
2026-05-07 01:32 33.64363 -84.44116 1006 ft 17 kts
2026-05-07 01:33 33.64422 -84.44022 1006 ft 15 kts 80°
2026-05-07 01:33 33.64438 -84.43901 1006 ft 16 kts 81°
2026-05-07 01:33 33.64456 -84.43741 1006 ft 22 kts 85°
2026-05-07 01:33 33.64459 -84.43532 1006 ft 28 kts 89°
2026-05-07 01:34 33.64459 -84.43305 1007 ft 27 kts 90°
2026-05-07 01:34 33.64459 -84.43088 1007 ft 21 kts 90°
2026-05-07 01:34 33.64460 -84.42918 1006 ft 20 kts 90°
2026-05-07 01:34 33.64462 -84.42758 1006 ft 18 kts 82°
2026-05-07 01:35 33.64469 -84.42609 1006 ft 18 kts 89°
2026-05-07 01:35 33.64469 -84.42436 1006 ft 23 kts 90°
2026-05-07 01:35 33.64482 -84.42247 1006 ft 22 kts 59°
2026-05-07 01:35 33.64540 -84.42091 1006 ft 19 kts 83°
2026-05-07 01:36 33.64542 -84.41917 1006 ft 24 kts 92°
2026-05-07 01:36 33.64543 -84.41700 1007 ft 25 kts 90°
2026-05-07 01:36 33.64543 -84.41495 1007 ft 24 kts 90°
2026-05-07 01:36 33.64542 -84.41295 1007 ft 23 kts 91°
2026-05-07 01:37 33.64543 -84.41108 1007 ft 22 kts 90°
2026-05-07 01:37 33.64542 -84.40928 1006 ft 21 kts 90°
2026-05-07 01:37 33.64567 -84.40761 1006 ft 20 kts 80°
2026-05-07 01:37 33.64573 -84.40608 1005 ft 15 kts 81°
2026-05-07 01:38 33.64588 -84.40578 1005 ft 1 kts 40°
2026-05-07 01:38 33.64613 -84.40569 1005 ft 9 kts 11°
2026-05-07 01:38 33.64680 -84.40592 1004 ft 10 kts 289°
2026-05-07 01:38 33.64680 -84.40614 1004 ft 0 kts 269°
2026-05-07 01:40 33.64680 -84.40621 1004 ft 6 kts 269°
2026-05-07 01:41 33.64678 -84.41015 1007 ft 91 kts 270°
2026-05-07 01:41 33.64674 -84.42089 1008 ft 163 kts 269°
2026-05-07 01:41 33.64666 -84.43562 1525 ft 185 kts 268°
2026-05-07 01:41 33.64659 -84.45099 2534 ft 182 kts 265°
2026-05-07 01:42 33.64860 -84.46616 3321 ft 185 kts 275°
2026-05-07 01:42 33.65140 -84.48182 3526 ft 202 kts 275°
2026-05-07 01:42 33.65451 -84.49933 3676 ft 227 kts 276°
2026-05-07 01:42 33.65798 -84.51883 4030 ft 249 kts 277°
2026-05-07 01:43 33.66170 -84.53919 4753 ft 254 kts 277°
2026-05-07 01:43 33.66555 -84.55989 5518 ft 256 kts 278°
2026-05-07 01:43 33.66943 -84.58082 6313 ft 257 kts 278°
2026-05-07 01:43 33.67324 -84.60180 7096 ft 257 kts 277°
2026-05-07 01:44 33.67687 -84.62284 7833 ft 258 kts 277°
2026-05-07 01:44 33.68046 -84.64408 8574 ft 260 kts 277°
2026-05-07 01:44 33.68404 -84.66546 9310 ft 262 kts 277°
2026-05-07 01:44 33.68765 -84.68703 9982 ft 265 kts 277°
2026-05-07 01:45 33.69139 -84.70931 10311 ft 282 kts 277°
2026-05-07 01:45 33.69340 -84.73348 10435 ft 301 kts 267°
2026-05-07 01:45 33.69081 -84.75914 10551 ft 320 kts 255°
2026-05-07 01:45 33.68284 -84.78457 10882 ft 330 kts 243°
2026-05-07 01:46 33.66997 -84.80771 11447 ft 335 kts 234°
2026-05-07 01:46 33.65595 -84.83025 12061 ft 339 kts 235°
2026-05-07 01:46 33.64184 -84.85302 12689 ft 342 kts 235°
2026-05-07 01:46 33.62762 -84.87595 13304 ft 345 kts 235°
2026-05-07 01:47 33.61319 -84.89919 13890 ft 349 kts 235°
2026-05-07 01:47 33.59884 -84.92235 14435 ft 351 kts 236°
2026-05-07 01:47 33.58421 -84.94593 14979 ft 353 kts 236°
2026-05-07 01:47 33.56947 -84.96972 15491 ft 356 kts 236°
2026-05-07 01:48 33.55467 -84.99365 16005 ft 358 kts 236°
2026-05-07 01:48 33.53978 -85.01765 16505 ft 361 kts 236°
2026-05-07 01:48 33.52470 -85.04190 17027 ft 363 kts 237°
2026-05-07 01:48 33.50958 -85.06623 17567 ft 364 kts 237°
2026-05-07 01:49 33.49441 -85.09059 18111 ft 366 kts 237°
2026-05-07 01:49 33.47916 -85.11506 18575 ft 368 kts 237°
2026-05-07 01:49 33.46380 -85.13970 19019 ft 369 kts 237°
2026-05-07 01:49 33.44841 -85.16436 19452 ft 371 kts 237°
2026-05-07 01:50 33.43293 -85.18915 19881 ft 372 kts 238°
2026-05-07 01:50 33.41985 -85.21564 20295 ft 369 kts 248°
2026-05-07 01:50 33.41122 -85.24439 20704 ft 368 kts 256°
2026-05-07 01:50 33.40405 -85.27383 21123 ft 370 kts 256°
2026-05-07 01:51 33.39677 -85.30345 21539 ft 371 kts 255°
2026-05-07 01:51 33.38942 -85.33309 21925 ft 373 kts 255°
2026-05-07 01:51 33.38202 -85.36294 22350 ft 375 kts 255°
2026-05-07 01:51 33.37459 -85.39291 22751 ft 376 kts 255°
2026-05-07 01:52 33.36714 -85.42304 23150 ft 378 kts 255°
2026-05-07 01:52 33.35968 -85.45319 23579 ft 378 kts 255°
2026-05-07 01:52 33.35227 -85.48301 23905 ft 380 kts 255°
2026-05-07 01:52 33.34471 -85.51337 24210 ft 382 kts 255°
2026-05-07 01:53 33.33713 -85.54379 24499 ft 384 kts 255°
2026-05-07 01:53 33.32946 -85.57451 24789 ft 386 kts 255°
2026-05-07 01:53 33.32175 -85.60538 25068 ft 388 kts 255°
2026-05-07 01:53 33.31404 -85.63638 25353 ft 391 kts 255°
2026-05-07 01:54 33.30625 -85.66758 25628 ft 393 kts 255°
2026-05-07 01:54 33.29837 -85.69900 25902 ft 396 kts 255°
2026-05-07 01:54 33.29042 -85.73060 26174 ft 398 kts 255°
2026-05-07 01:54 33.28242 -85.76238 26440 ft 400 kts 255°
2026-05-07 01:55 33.27438 -85.79431 26713 ft 402 kts 255°
2026-05-07 01:55 33.26629 -85.82647 26973 ft 404 kts 255°
2026-05-07 01:55 33.25819 -85.85870 27222 ft 406 kts 254°
2026-05-07 01:55 33.25013 -85.89074 27468 ft 408 kts 254°
2026-05-07 01:56 33.24192 -85.92329 27723 ft 410 kts 254°
2026-05-07 01:56 33.23357 -85.95643 27980 ft 413 kts 254°
2026-05-07 01:56 33.22537 -85.98886 28219 ft 415 kts 254°
2026-05-07 01:56 33.21700 -86.02191 28452 ft 417 kts 254°
2026-05-07 01:57 33.20855 -86.05512 28713 ft 418 kts 254°
2026-05-07 01:57 33.20007 -86.08831 29065 ft 417 kts 254°
2026-05-07 01:57 33.19161 -86.12140 29382 ft 417 kts 254°
2026-05-07 01:57 33.18317 -86.15451 29694 ft 417 kts 254°
2026-05-07 01:58 33.17474 -86.18757 29984 ft 417 kts 253°
2026-05-07 01:58 33.16629 -86.22062 30253 ft 416 kts 253°
2026-05-07 01:58 33.15787 -86.25356 30608 ft 415 kts 253°
2026-05-07 01:58 33.14943 -86.28652 30907 ft 414 kts 253°
2026-05-07 01:59 33.14104 -86.31937 31229 ft 413 kts 253°
2026-05-07 01:59 33.13267 -86.35206 31530 ft 411 kts 253°
2026-05-07 01:59 33.12431 -86.38461 31850 ft 410 kts 253°
2026-05-07 01:59 33.11593 -86.41720 31978 ft 408 kts 253°
2026-05-07 02:00 33.10768 -86.44926 31995 ft 403 kts 253°
2026-05-07 02:00 33.09116 -86.51308 31983 ft 403 kts 254°
2026-05-07 02:01 33.06630 -86.57285 31953 ft 408 kts 235°
2026-05-07 02:01 33.02503 -86.61969 31942 ft 413 kts 224°
2026-05-07 02:02 32.98115 -86.66329 31935 ft 412 kts 224°
2026-05-07 02:02 32.93714 -86.70714 31935 ft 412 kts 224°
2026-05-07 02:03 32.89310 -86.75089 31931 ft 412 kts 224°
2026-05-07 02:03 32.84901 -86.79452 31931 ft 412 kts 224°
2026-05-07 02:04 32.80497 -86.83813 31907 ft 413 kts 225°
2026-05-07 02:04 32.76083 -86.88184 31910 ft 414 kts 225°
2026-05-07 02:05 32.72400 -86.91823 31913 ft 414 kts 225°
2026-05-07 02:05 32.67966 -86.96199 31904 ft 414 kts 224°
2026-05-07 02:06 32.63534 -87.00574 31925 ft 414 kts 224°
2026-05-07 02:06 32.59111 -87.04928 31934 ft 413 kts 224°
2026-05-07 02:07 32.54688 -87.09280 31920 ft 413 kts 224°
2026-05-07 02:07 32.48020 -87.15808 31916 ft 415 kts 224°
2026-05-07 02:08 32.43565 -87.20183 31923 ft 416 kts 224°
2026-05-07 02:08 32.39104 -87.24555 31929 ft 416 kts 224°
2026-05-07 02:09 32.34661 -87.28889 31925 ft 417 kts 224°
2026-05-07 02:09 32.30189 -87.33248 31927 ft 416 kts 225°